FW4030 Weather Reports


Display with metric or nautical units.
time (UTC)temp
F
wind
direction
speed
MPH
gust
MPH
rain 1hr
in
rain 24hr
in
rain mn
in
humidity
%
barometer
mb
20260510170734 62 176 5.0 10.0 0.00 0.00 0.00 56 1020.4
20260510165734 63 151 2.0 5.0 0.00 0.00 0.00 54 1020.4
20260510165635 63 155 3.0 6.0 0.00 0.00 0.00 54 1020.4
20260510164633 64 172 4.0 9.0 0.00 0.00 0.00 53 1020.4
20260510163636 65 169 4.0 8.0 0.00 0.00 0.00 51 1020.3
20260510162733 66 176 6.0 11.0 0.00 0.00 0.00 50 1020.3
20260510161733 67 151 4.0 7.0 0.00 0.00 0.00 49 1020.3
20260510160733 68 180 4.0 8.0 0.00 0.00 0.00 48 1020.3
20260510155735 68 158 3.0 7.0 0.00 0.00 0.00 47 1020.6
20260510154735 69 158 7.0 12.0 0.00 0.00 0.00 47 1020.6
20260510153734 69 174 6.0 10.0 0.00 0.00 0.00 47 1020.9
20260510151836 69 180 8.0 12.0 0.00 0.00 0.00 47 1021.1
20260510150933 69 155 5.0 10.0 0.00 0.00 0.00 47 1021.2
20260510145932 68 176 5.0 9.0 0.00 0.00 0.00 48 1021.4
20260510145836 68 166 3.0 7.0 0.00 0.00 0.00 49 1021.4
20260510144835 67 180 2.0 6.0 0.00 0.00 0.00 49 1021.7
20260510143934 68 169 7.0 10.0 0.00 0.00 0.00 48 1021.7
20260510143835 68 180 4.0 7.0 0.00 0.00 0.00 48 1021.7
20260510142932 68 129 8.0 10.0 0.00 0.00 0.00 49 1021.7
20260510141933 67 180 6.0 9.0 0.00 0.00 0.00 51 1021.8
20260510141834 67 172 5.0 11.0 0.00 0.00 0.00 51 1021.9
20260510140835 67 174 5.0 10.0 0.00 0.00 0.00 51 1022.0
20260510135835 68 169 8.0 11.0 0.00 0.00 0.00 52 1022.3
20260510133833 67 176 4.0 9.0 0.00 0.00 0.00 53 1022.5
20260510132835 66 164 7.0 12.0 0.00 0.00 0.00 52 1022.6
20260510131833 67 172 4.0 8.0 0.00 0.00 0.00 51 1022.7
20260510130836 68 151 6.0 12.0 0.00 0.00 0.00 51 1023.0
20260510123835 69 180 6.0 10.0 0.00 0.00 0.00 52 1023.2
20260510122933 68 180 9.0 15.0 0.00 0.00 0.00 53 1023.4
20260510121932 68 174 4.0 9.0 0.00 0.00 0.00 54 1023.3
20260510121835 67 172 6.0 12.0 0.00 0.00 0.00 54 1023.5
20260510114833 66 178 2.0 5.0 0.00 0.00 0.00 56 1023.8
20260510113836 65 176 1.0 3.0 0.00 0.00 0.00 57 1023.8
20260510112933 66 160 4.0 5.0 0.00 0.00 0.00 55 1023.9
20260510105034 64 161 4.0 9.0 0.00 0.00 0.00 61 1024.4
20260510104033 63 174 7.0 11.0 0.00 0.00 0.00 63 1024.4
20260510103036 63 180 2.0 5.0 0.00 0.00 0.00 64 1024.5
20260510102049 63 172 5.0 10.0 0.00 0.00 0.00 64 1024.7
20260510101034 64 151 5.0 9.0 0.00 0.00 0.00 63 1024.7
20260510095034 65 178 5.0 8.0 0.00 0.00 0.00 62 1024.7
20260510094033 65 164 5.0 9.0 0.00 0.00 0.00 61 1024.8
20260510093036 66 164 4.0 8.0 0.00 0.00 0.00 61 1024.7
20260510092033 66 180 4.0 7.0 0.00 0.00 0.00 63 1024.9
20260510091036 65 180 4.0 7.0 0.00 0.00 0.00 64 1025.1
20260510090036 63 180 6.0 9.0 0.00 0.00 0.00 65 1025.0
20260510085035 63 161 3.0 5.0 0.00 0.00 0.00 65 1025.1
20260510084133 63 180 5.0 7.0 0.00 0.00 0.00 66 1025.2
20260510083150 62 144 3.0 8.0 0.00 0.00 0.00 67 1025.1
20260510081234 61 180 5.0 7.0 0.00 0.00 0.00 68 1025.3
20260510080332 62 180 4.0 7.0 0.00 0.00 0.00 68 1025.2
20260510075335 62 180 3.0 6.0 0.00 0.00 0.00 70 1025.2
20260510074434 61 180 4.0 7.0 0.00 0.00 0.00 72 1025.4
20260510073433 60 180 2.0 5.0 0.00 0.00 0.00 73 1025.4
20260510072433 59 180 2.0 5.0 0.00 0.00 0.00 76 1025.5
20260510071435 57 180 4.0 7.0 0.00 0.00 0.00 78 1025.6
20260510070434 56 180 4.0 7.0 0.00 0.00 0.00 80 1025.5
20260510065432 54 180 3.0 6.0 0.00 0.00 0.00 83 1025.6
20260510064435 52 180 6.0 10.0 0.00 0.00 0.00 86 1025.5
20260510063434 51 180 3.0 7.0 0.00 0.00 0.00 88 1025.5
20260510061535 49 169 3.0 7.0 0.00 0.00 0.00 89 1025.4
20260510060533 49 180 4.0 7.0 0.00 0.00 0.00 90 1025.5
20260510060434 49 180 3.0 7.0 0.00 0.00 0.00 90 1025.4
20260510055533 49 180 6.0 9.0 0.00 0.00 0.00 90 1025.4
20260510054534 49 180 3.0 4.0 0.00 0.00 0.00 91 1025.4
20260510052535 48 180 2.0 4.0 0.00 0.00 0.00 92 1025.5
20260510051535 47 180 2.0 5.0 0.00 0.00 0.00 92 1025.5
20260510051433 47 180 3.0 6.0 0.00 0.00 0.00 92 1025.5
20260510045435 47 180 3.0 6.0 0.00 0.00 0.00 92 1025.5
20260510044432 47 180 2.0 5.0 0.00 0.00 0.00 92 1025.4
20260510043435 46 180 1.0 3.0 0.00 0.00 0.00 92 1025.3
20260510042434 46 180 4.0 7.0 0.00 0.00 0.00 92 1025.4
20260510041436 46 180 2.0 5.0 0.00 0.00 0.00 91 1025.3
20260510040533 46 180 3.0 5.0 0.00 0.00 0.00 91 1025.3
20260510035534 45 180 4.0 5.0 0.00 0.00 0.00 89 1025.2
20260510035435 45 180 2.0 4.0 0.00 0.00 0.00 89 1025.2
20260510034534 45 180 2.0 4.0 0.00 0.00 0.00 88 1025.2
20260510033535 45 180 1.0 3.0 0.00 0.00 0.00 88 1025.2
20260510031632 46 180 0.0 0.0 0.00 0.00 0.00 88 1025.3
20260510030533 46 180 0.0 0.0 0.00 0.00 0.00 88 1025.3
20260510025533 46 180 0.0 2.0 0.00 0.00 0.00 88 1025.4
20260510024538 46 180 0.0 0.0 0.00 0.00 0.00 87 1025.4
20260510023533 45 180 0.0 1.0 0.00 0.00 0.00 86 1025.5
20260510022533 45 180 1.0 2.0 0.00 0.00 0.00 86 1025.6
20260510022432 45 180 1.0 2.0 0.00 0.00 0.00 86 1025.5
20260510022334 45 180 1.0 2.0 0.00 0.00 0.00 86 1025.5
20260510021334 46 180 0.0 0.0 0.00 0.00 0.00 86 1025.6
20260510020432 46 180 0.0 0.0 0.00 0.00 0.00 86 1025.6
20260510015434 47 180 1.0 2.0 0.00 0.00 0.00 85 1025.7
20260510014436 47 180 1.0 2.0 0.00 0.00 0.00 85 1025.5
20260510013434 47 180 1.0 2.0 0.00 0.00 0.00 85 1025.7
20260510013334 47 180 1.0 2.0 0.00 0.00 0.00 85 1025.6
20260510012333 46 180 0.0 0.0 0.00 0.00 0.00 84 1025.8
20260510010334 46 180 0.0 0.0 0.00 0.00 0.00 83 1025.8
20260510005334 46 180 0.0 0.0 0.00 0.00 0.00 82 1025.8
20260510004334 47 180 0.0 1.0 0.00 0.00 0.00 82 1025.8
20260510003433 47 180 0.0 0.0 0.00 0.00 0.00 81 1025.9
20260509234535 49 180 2.0 3.0 0.00 0.00 0.00 80 1026.1
20260509234433 49 180 2.0 4.0 0.00 0.00 0.00 79 1026.1
20260509233435 49 180 0.0 1.0 0.00 0.00 0.00 79 1026.4
20260509232533 48 180 0.0 1.0 0.00 0.00 0.00 78 1026.5
20260509232432 48 180 1.0 2.0 0.00 0.00 0.00 78 1026.6
20260509231435 48 180 0.0 1.0 0.00 0.00 0.00 77 1026.5
20260509230532 48 180 0.0 0.0 0.00 0.00 0.00 76 1026.7
20260509225533 49 180 0.0 1.0 0.00 0.00 0.00 75 1026.6
20260509224536 49 180 1.0 2.0 0.00 0.00 0.00 74 1026.6
20260509223534 49 180 0.0 0.0 0.00 0.00 0.00 74 1026.7
20260509222537 50 180 0.0 0.0 0.00 0.00 0.00 74 1026.8
20260509221537 50 180 0.0 0.0 0.00 0.00 0.00 74 1026.7
20260509220633 50 180 1.0 1.0 0.00 0.00 0.00 73 1026.6
20260509215717 50 90 0.0 2.0 0.00 0.00 0.00 72 1026.7
20260509215615 50 172 0.0 1.0 0.00 0.00 0.00 72 1026.7
20260509214615 51 180 0.0 0.0 0.00 0.00 0.00 71 1026.7
20260509213616 51 180 0.0 1.0 0.00 0.00 0.00 69 1026.7
20260509212615 52 180 0.0 0.0 0.00 0.00 0.00 68 1026.8
20260509210814 53 180 1.0 2.0 0.00 0.00 0.00 69 1026.7
20260509205817 53 180 1.0 2.0 0.00 0.00 0.00 68 1026.7
20260509204838 54 180 1.0 2.0 0.00 0.00 0.00 68 1026.9
20260509203914 54 180 0.0 1.0 0.00 0.00 0.00 68 1026.8
20260509203814 54 180 0.0 0.0 0.00 0.00 0.00 68 1026.9
20260509202815 54 180 0.0 0.0 0.00 0.00 0.00 69 1027.0
20260509201816 53 180 0.0 0.0 0.00 0.00 0.00 67 1027.0
20260509200815 54 180 0.0 0.0 0.00 0.00 0.00 65 1026.9
20260509195914 55 180 0.0 0.0 0.00 0.00 0.00 64 1027.1
20260509194918 55 180 1.0 2.0 0.00 0.00 0.00 62 1027.0
20260509192015 58 180 0.0 1.0 0.00 0.00 0.00 58 1027.0
20260509191015 59 180 0.0 1.0 0.00 0.00 0.00 57 1026.9
20260509190916 59 180 0.0 2.0 0.00 0.00 0.00 57 1026.9
20260509185917 60 180 0.0 0.0 0.00 0.00 0.00 55 1026.8
20260509184915 61 180 0.0 0.0 0.00 0.00 0.00 53 1026.8
20260509183936 62 180 0.0 2.0 0.00 0.00 0.00 50 1026.7
20260509183015 62 180 3.0 4.0 0.00 0.00 0.00 49 1026.7
20260509182015 63 180 0.0 0.0 0.00 0.00 0.00 49 1026.6
20260509180016 64 180 0.0 1.0 0.00 0.00 0.00 48 1026.7
20260509175114 64 158 2.0 3.0 0.00 0.00 0.00 48 1026.5
20260509174115 65 180 1.0 5.0 0.00 0.00 0.00 47 1026.4
20260509174016 65 180 2.0 3.0 0.00 0.00 0.00 47 1026.5
20260509173114 65 180 1.0 4.0 0.00 0.00 0.00 46 1026.6
20260509172115 66 180 2.0 7.0 0.00 0.00 0.00 45 1026.6